Location: A�t Lahcen
(32.8243°N, 5.4246°W)
Time: 01:29:44
(UTC+00:00)

Cosmos 1937 Rocket - Pass Details

Date: 27 January 2021
Orbit: 746 x 780 km, 74.1° (Epoch: 26 February)

Event Time Altitude Azimuth Distance (km) Brightness Sun altitude
Exits shadow 05:00:59 57° 145° (SE) 891 3.9 -29.2°
Drops below altitude 10° 05:05:07 10° 160° (SSE) 2,278 6.2 -28.3°
Sets 05:07:27 0° 162° (SSE) 3,194 7.0 -27.8°
